[[{"header":{"parameterUnit":"m.s-1","parameterCategory":1,"la1":30.2991,"la2":30.254,"lo1":-89.0895,"lo2":-89.0444,"dy":0.0017,"dx":0.0017,"nx":28,"ny":28,"refTime":"2023-11-12T09:00:00:Z","depth":0,"parameterNumber":2,"parameterNumberName":"U-component_of_WINDS"},"data":[0,0,0,0,0,0,0,0,0,0,0,0,0,0,0,0,0,0,0,0,0,0,0,0,0,0,0,0,0,0,0,0,0,0,0,0,0,0,0,0,0,0,0,0,0,0,0,0,0,0,0,0,0,0,0,0,0,0,-4.0616,-4.0617,0,-4.0714,-4.0715,-4.0716,-4.0628,-4.0624,-4.0621,-4.0617,-4.0722,-4.0728,-4.0734,0,0,0,0,0,0,0,0,0,0,0,0,0,-4.0356,-4.0362,-4.0616,-4.0617,-4.0618,-4.0714,-4.0715,-4.0716,-4.0628,-4.0624,-4.062,-4.0616,-4.072,-4.0727,-4.0734,0,0,0,0,0,0,0,0,0,0,0,0,0,-4.0463,-4.0363,-4.0616,-4.0586,-4.0584,-4.0713,-4.0715,-4.0717,-4.0629,-4.0624,-4.0619,-4.0614,-4.0717,-4.0726,-4.0735,-4.09,0,0,-4.0763,-4.0767,0,0,0,0,0,0,0,0,-4.0457,-4.0473,-4.0589,-4.0588,-4.0586,-4.0653,-4.0662,-4.0778,-4.0631,-4.0612,-4.0617,-4.0611,-4.0703,-4.0713,-4.0744,-4.0905,-4.0909,-4.0764,-4.077,-4.0774,-4.0776,0,0,0,0,0,0,0,-4.045,-4.0468,-4.0655,-4.0591,-4.0589,-4.0569,-4.0578,-4.0683,-4.0687,-4.0614,-4.0607,-4.062,-4.0702,-4.0735,-4.0746,-4.0911,-4.0764,-4.0772,-4.0778,-4.0781,-4.1213,-4.1219,0,0,0,0,0,0,-4.0445,-4.0463,-4.0652,-4.0658,-4.0507,-4.0578,-4.0588,-4.0637,-4.0686,-4.0688,-4.0624,-4.0615,-4.0722,-4.0735,-4.0749,-4.0946,-4.0774,-4.0782,-4.0787,-4.1207,-4.1214,-4.1221,0,0,0,0,0,0,-4.044,-4.0463,-4.0648,-4.0559,-4.058,-4.0588,-4.0644,-4.0642,-4.0675,-4.0694,-4.0694,-4.0658,-4.0718,-4.0736,-4.0863,-4.0948,-4.0786,-4.0795,-4.12,-4.1209,-4.1217,-4.1341,0,0,0,0,0,0,-4.0433,-4.0462,-4.0524,-4.056,-4.0585,-4.076,-4.0649,-4.0648,-4.0691,-4.068,-4.0725,-4.0728,-4.0715,-4.085,-4.0872,-4.0958,-4.0802,-4.1192,-4.1204,-4.1215,-4.133,-4.1353,-4.1373,0,0,0,0,0,-4.0424,-4.0555,-4.0527,-4.0551,-4.0663,-4.0765,-4.0779,-4.0761,-4.0698,-4.0761,-4.0773,-4.0726,-4.0935,-4.0863,-4.0888,-4.0978,-4.1187,-4.1201,-4.1214,-4.132,-4.1349,-4.1373,0,0,0,0,0,0,-4.053,-4.056,-4.0529,-4.0676,-4.0718,-4.0749,-4.0828,-4.0792,-4.0855,-4.0842,-4.0818,-4.0829,-4.0964,-4.0983,-4.0903,-4.114,-4.1051,-4.107,-4.1123,-4.1151,-4.1172,-4.1166,-4.0809,0,0,0,0,0,-4.057,-4.0649,-4.0671,-4.0798,-4.0821,-4.0821,-4.0865,-4.0847,-4.0891,-4.0909,-4.093,-4.0975,-4.1051,-4.1101,-4.1172,-4.1331,-4.1341,-4.1405,-4.1427,-4.1445,-4.1462,-4.1549,-4.1579,-4.1265,-4.1265,-4.1264,0,0,-4.0655,-4.068,-4.0732,-4.082,-4.0851,-4.0935,-4.0837,-4.0929,-4.0992,-4.0923,-4.1045,-4.1062,-4.111,-4.1255,-4.1319,-4.1275,-4.1551,-4.1462,-4.1476,-4.1484,-4.1566,-4.1596,-4.1622,-4.1274,-4.1272,-4.1271,0,0,-4.0851,-4.0878,-4.0988,-4.102,-4.1067,-4.1066,-4.1093,-4.113,-4.1138,-4.1259,-4.1209,-4.1283,-4.1414,-4.1451,-4.1487,-4.1697,-4.1657,-4.1721,-4.1837,-4.1921,-4.1946,-4.1968,-4.2045,-4.2072,-4.1737,-4.1738,-4.1738,0,-4.0951,-4.1074,-4.1049,-4.1145,-4.1186,-4.1126,-4.1238,-4.127,-4.1339,-4.137,-4.1318,-4.1481,-4.151,-4.1662,-4.1713,-4.1744,-4.1775,-4.1717,-4.1944,-4.1966,-4.1986,-4.2059,-4.2088,-4.1745,-4.1745,-4.1744,-4.1743,0,-4.1194,-4.128,-4.1363,-4.143,-4.1479,-4.1583,-4.1575,-4.1629,-4.1607,-4.1612,-4.1736,-4.1768,-4.1844,-4.1879,-4.1858,-4.2029,-4.2,-4.1947,-4.1857,-4.2024,-4.2092,-4.212,-4.1756,-4.1754,-4.1751,-4.1749,0,0,-4.1463,-4.1513,-4.1544,-4.1574,-4.1621,-4.1688,-4.1789,-4.1862,-4.1909,-4.1958,-4.2043,-4.2155,-4.2106,-4.2147,-4.213,-4.2204,-4.237,-4.2142,-4.2143,-4.2185,-4.2562,-4.2603,-4.2636,-4.2343,-4.2348,-4.2352,-4.2559,0,-4.1663,-4.1837,-4.1818,-4.1984,-4.2064,-4.2008,-4.2095,-4.2135,-4.2142,-4.2211,-4.2219,-4.2299,-4.2228,-4.2252,-4.2323,-4.2335,-4.2446,-4.232,-4.2424,-4.2428,-4.2416,-4.2671,-4.2715,-4.2908,-4.2585,-4.2589,-4.2593,0,-4.192,-4.1977,-4.2151,-4.2186,-4.2219,-4.2298,-4.2364,-4.2431,-4.2474,-4.2474,-4.2519,-4.2489,-4.2592,-4.2498,-4.264,-4.2555,-4.2596,-4.2608,-4.2615,-4.2627,-4.2522,-4.2691,-4.2969,-4.2999,-4.2634,-4.2631,-4.2628,0,-4.2101,-4.2221,-4.2341,-4.2368,-4.2411,-4.2468,-4.2489,-4.2527,-4.2572,-4.263,-4.2659,-4.2729,-4.2768,-4.2822,-4.2813,-4.2745,-4.2958,-4.2863,-4.2963,-4.2963,-4.3012,-4.301,-4.3303,-4.3036,-4.3035,-4.3034,-4.3034,0,-4.2327,-4.2437,-4.2422,-4.2497,-4.2618,-4.2594,-4.2716,-4.2729,-4.2764,-4.284,-4.2795,-4.2869,-4.285,-4.2923,-4.2916,-4.3036,-4.3053,-4.3057,-4.3054,-4.3063,-4.3062,-4.3091,-4.3078,-4.3042,-4.304,-4.3039,-4.3038,0,-4.2551,-4.2545,-4.2673,-4.2702,-4.2713,-4.2801,-4.2827,-4.2898,-4.29,-4.2998,-4.302,-4.3025,-4.3108,-4.3103,-4.3198,-4.3193,-4.3341,-4.3321,-4.3326,-4.3323,-4.3424,-4.3415,-4.3748,-4.3791,-4.3493,-4.3496,-4.3498,0,-4.2697,-4.278,-4.2818,-4.2865,-4.289,-4.2967,-4.3013,-4.2993,-4.3042,-4.3098,-4.3162,-4.3241,-4.3304,-4.344,-4.3453,-4.3526,-4.3509,-4.362,-4.352,-4.3525,-4.3513,-4.3509,-4.3518,-4.3641,-4.3644,-4.3647,-4.3649,0,-4.2958,-4.295,-4.3017,-4.3084,-4.3139,-4.319,-4.3237,-4.3279,-4.3264,-4.3322,-4.3406,-4.3454,-4.355,-4.363,-4.3699,-4.3722,-4.3685,-4.368,-4.3708,-4.3718,-4.3718,-4.3721,-4.3383,-4.3673,-4.3671,-4.3669,-4.3668,-4.3667,-4.3148,-4.3219,-4.3257,-4.3333,-4.3366,-4.3411,-4.3479,-4.3489,-4.3558,-4.3634,-4.3618,-4.3713,-4.3755,-4.3843,-4.3872,-4.3947,-4.3908,-4.3947,-4.3957,-4.3968,-4.398,-4.3704,-4.396,-4.3959,-4.3958,-4.3958,-4.3957,0,-4.3408,-4.3429,-4.3499,-4.3566,-4.3626,-4.3582,-4.3631,-4.3685,-4.3769,-4.381,-4.3872,-4.3969,-4.4046,-4.4065,-4.4139,-4.4196,-4.418,-4.4216,-4.4213,-4.4219,-4.401,-4.398,-4.4227,-4.4227,-4.4227,-4.4227,-4.4227,-4.4227,-4.3551,-4.3669,-4.3666,-4.3801,-4.3821,-4.3913,-4.3945,-4.3987,-4.4019,-4.413,-4.4193,-4.4203,-4.4236,-4.4312,-4.4381,-4.4384,-4.4415,-4.4458,-4.4455,-4.4261,-4.4234,-4.4208,-4.418,-4.4464,-4.4465,-4.4658,-4.466,-4.4661]},{"header":{"parameterUnit":"m.s-1","parameterCategory":1,"la1":30.2991,"la2":30.254,"lo1":-89.0895,"lo2":-89.0444,"dy":0.0017,"dx":0.0017,"nx":28,"ny":28,"refTime":"2023-11-12T09:00:00:Z","depth":0,"parameterNumber":3,"parameterNumberName":"V-component_of_WINDS"},"data":[0,0,0,0,0,0,0,0,0,0,0,0,0,0,0,0,0,0,0,0,0,0,0,0,0,0,0,0,0,0,0,0,0,0,0,0,0,0,0,0,0,0,0,0,0,0,0,0,0,0,0,0,0,0,0,0,0,0,-4.5252,-4.5252,0,-4.527,-4.527,-4.527,-4.5209,-4.5207,-4.5205,-4.5204,-4.5221,-4.5224,-4.5226,0,0,0,0,0,0,0,0,0,0,0,0,0,-4.5162,-4.5164,-4.5252,-4.5252,-4.5252,-4.527,-4.527,-4.527,-4.521,-4.5207,-4.5205,-4.5203,-4.5221,-4.5223,-4.5226,0,0,0,0,0,0,0,0,0,0,0,0,0,-4.5193,-4.5165,-4.5252,-4.5224,-4.5222,-4.527,-4.527,-4.527,-4.521,-4.5207,-4.5204,-4.5202,-4.522,-4.5223,-4.5226,-4.5302,0,0,-4.5236,-4.5238,0,0,0,0,0,0,0,0,-4.5191,-4.5196,-4.5228,-4.5226,-4.5224,-4.5234,-4.5245,-4.5281,-4.5211,-4.5214,-4.5204,-4.5201,-4.5228,-4.523,-4.524,-4.5303,-4.5303,-4.5237,-4.5239,-4.524,-4.5241,0,0,0,0,0,0,0,-4.5189,-4.5195,-4.5259,-4.5228,-4.5226,-4.521,-4.5211,-4.5251,-4.5236,-4.5214,-4.5209,-4.5213,-4.5226,-4.5237,-4.524,-4.5304,-4.5237,-4.5239,-4.5241,-4.5243,-4.5427,-4.543,0,0,0,0,0,0,-4.5191,-4.5194,-4.5258,-4.5259,-4.52,-4.5214,-4.5215,-4.5234,-4.5236,-4.5234,-4.5215,-4.521,-4.5233,-4.5236,-4.524,-4.5327,-4.524,-4.5243,-4.5245,-4.5424,-4.5428,-4.5431,0,0,0,0,0,0,-4.5189,-4.5197,-4.5258,-4.5225,-4.5232,-4.5218,-4.524,-4.5236,-4.5246,-4.5237,-4.5233,-4.5229,-4.5231,-4.5236,-4.5286,-4.5327,-4.5245,-4.5248,-4.5421,-4.5425,-4.5429,-4.5503,0,0,0,0,0,0,-4.5187,-4.5197,-4.5226,-4.5227,-4.5234,-4.5305,-4.5242,-4.5238,-4.5252,-4.5245,-4.5249,-4.5247,-4.5229,-4.5282,-4.529,-4.533,-4.525,-4.5417,-4.5423,-4.5428,-4.5497,-4.5509,-4.552,0,0,0,0,0,-4.5184,-4.5247,-4.5228,-4.5236,-4.527,-4.5307,-4.5311,-4.529,-4.5256,-4.5284,-4.5278,-4.5246,-4.5322,-4.5288,-4.5296,-4.5338,-4.5414,-4.5421,-4.5427,-4.5492,-4.5507,-4.552,0,0,0,0,0,0,-4.5252,-4.5246,-4.5226,-4.5291,-4.53,-4.5297,-4.5332,-4.5307,-4.5326,-4.5319,-4.5291,-4.5292,-4.5348,-4.5348,-4.531,-4.541,-4.5362,-4.537,-4.5408,-4.5422,-4.5434,-4.5432,-4.5253,0,0,0,0,0,-4.5274,-4.5305,-4.5298,-4.5356,-4.5362,-4.5347,-4.5362,-4.5344,-4.5353,-4.5356,-4.5354,-4.5363,-4.5388,-4.5405,-4.5428,-4.5497,-4.5496,-4.5529,-4.5541,-4.5551,-4.5558,-4.5593,-4.5607,-4.5452,-4.5452,-4.5452,0,0,-4.5321,-4.5322,-4.5343,-4.537,-4.5375,-4.5407,-4.535,-4.5387,-4.541,-4.5362,-4.5409,-4.5408,-4.5416,-4.5475,-4.5501,-4.5477,-4.5601,-4.5559,-4.5567,-4.5569,-4.5601,-4.5616,-4.5629,-4.5457,-4.5456,-4.5455,0,0,-4.5422,-4.5427,-4.5474,-4.548,-4.5489,-4.5478,-4.5489,-4.549,-4.5487,-4.5534,-4.5498,-4.5525,-4.557,-4.5576,-4.5585,-4.5687,-4.5658,-4.5695,-4.5756,-4.579,-4.5802,-4.5813,-4.5848,-4.5861,-4.5703,-4.5703,-4.5703,0,-4.548,-4.5526,-4.5502,-4.5541,-4.5553,-4.551,-4.5558,-4.5565,-4.558,-4.5589,-4.5561,-4.5615,-4.5618,-4.5678,-4.5702,-4.5712,-4.5723,-4.5695,-4.5802,-4.5813,-4.5822,-4.5855,-4.5869,-4.5708,-4.5707,-4.5707,-4.5706,0,-4.5595,-4.5628,-4.5666,-4.5681,-4.5697,-4.574,-4.5721,-4.5741,-4.5721,-4.5713,-4.5761,-4.5762,-4.5784,-4.5797,-4.5779,-4.5854,-4.5838,-4.5807,-4.5758,-4.5842,-4.5872,-4.5885,-4.5714,-4.5712,-4.5711,-4.571,0,0,-4.5741,-4.5741,-4.5755,-4.5761,-4.5766,-4.579,-4.583,-4.5851,-4.5868,-4.588,-4.5912,-4.595,-4.592,-4.5931,-4.5913,-4.5943,-4.6022,-4.5908,-4.5908,-4.5928,-4.6103,-4.6126,-4.6141,-4.6003,-4.6005,-4.6007,-4.6102,0,-4.5839,-4.5908,-4.5887,-4.5956,-4.5985,-4.5944,-4.5979,-4.5985,-4.5978,-4.6001,-4.5993,-4.602,-4.598,-4.5986,-4.6014,-4.6006,-4.6056,-4.5999,-4.6032,-4.6033,-4.603,-4.6157,-4.6182,-4.6271,-4.6114,-4.6116,-4.6117,0,-4.5964,-4.598,-4.6052,-4.605,-4.6061,-4.6093,-4.6109,-4.6132,-4.6138,-4.6131,-4.6142,-4.6117,-4.6155,-4.6106,-4.6158,-4.6119,-4.6131,-4.6129,-4.6132,-4.6134,-4.608,-4.6161,-4.6299,-4.6312,-4.6136,-4.6135,-4.6133,0,-4.6061,-4.6101,-4.6148,-4.6154,-4.6154,-4.6177,-4.6178,-4.6181,-4.6194,-4.6208,-4.6217,-4.6235,-4.6246,-4.626,-4.6241,-4.6207,-4.6295,-4.6245,-4.6289,-4.6289,-4.6309,-4.6308,-4.6449,-4.6318,-4.6318,-4.6317,-4.6317,0,-4.6173,-4.6218,-4.6191,-4.6221,-4.627,-4.6244,-4.6293,-4.6289,-4.6292,-4.6319,-4.6285,-4.6311,-4.6284,-4.6307,-4.6293,-4.6336,-4.6342,-4.6336,-4.6331,-4.6339,-4.6339,-4.6346,-4.6339,-4.6321,-4.632,-4.632,-4.6319,0,-4.629,-4.6274,-4.6323,-4.6318,-4.6318,-4.6354,-4.6349,-4.6376,-4.6366,-4.64,-4.6407,-4.6391,-4.6417,-4.6399,-4.6424,-4.6414,-4.6472,-4.6459,-4.647,-4.6466,-4.6511,-4.6506,-4.6661,-4.6679,-4.6537,-4.6538,-4.6539,0,-4.6362,-4.6396,-4.6394,-4.641,-4.6413,-4.6438,-4.6451,-4.6427,-4.6442,-4.645,-4.6475,-4.6498,-4.6514,-4.6557,-4.6547,-4.6566,-4.6553,-4.6606,-4.6556,-4.6561,-4.6553,-4.655,-4.6553,-4.6616,-4.6618,-4.6619,-4.662,0,-4.6492,-4.6481,-4.6502,-4.6519,-4.6535,-4.6548,-4.6557,-4.6572,-4.6547,-4.6565,-4.6591,-4.6604,-4.6629,-4.6651,-4.6667,-4.6667,-4.6639,-4.6636,-4.6647,-4.6654,-4.6659,-4.6656,-4.6496,-4.6632,-4.6631,-4.663,-4.663,-4.6629,-4.6588,-4.6615,-4.6617,-4.6641,-4.6645,-4.6654,-4.6678,-4.6671,-4.6691,-4.671,-4.6694,-4.6724,-4.6727,-4.6745,-4.6749,-4.6771,-4.6749,-4.6766,-4.677,-4.6774,-4.678,-4.6656,-4.6774,-4.6774,-4.6773,-4.6773,-4.6773,0,-4.6714,-4.6713,-4.6735,-4.6749,-4.6767,-4.6739,-4.6747,-4.6764,-4.6791,-4.6796,-4.6813,-4.6841,-4.6862,-4.6854,-4.6873,-4.6892,-4.688,-4.6898,-4.6896,-4.6896,-4.6799,-4.6787,-4.6908,-4.6908,-4.6908,-4.6907,-4.6907,-4.6907,-4.6782,-4.6826,-4.6816,-4.6861,-4.686,-4.6889,-4.6896,-4.6904,-4.6908,-4.6941,-4.6958,-4.6953,-4.6952,-4.697,-4.6988,-4.6985,-4.6993,-4.7015,-4.7008,-4.6917,-4.6903,-4.689,-4.6879,-4.7017,-4.7017,-4.7103,-4.7104,-4.7104]}]]